RH
29 34 38 38 47 53 46 47 46 46 56 61 61 57 57 72 75 79 80 76 69 50 41 40 40 41 40 43 45 49 41 46 44 36 42 48 46 44 43 37 34 33 33 37
30 29 31 37 44 50 42 46 46 51 54 56 52 51 50 58 67 74 76 75 72 54 50 42 41 40 42 39 39 41 44 41 38 42 39 43 41 43 40 36 36 32 32 33
25 24 26 38 42 49 47 43 49 48 57 56 52 47 52 54 62 73 73 74 73 62 52 49 42 41 40 39 39 38 37 36 42 43 41 45 43 40 39 39 38 36 34 34
23 23 27 30 38 42 49 46 52 53 51 46 49 46 46 49 58 68 67 72 73 68 56 52 42 41 41 37 38 38 38 36 35 40 38 42 42 36 35 36 36 38 37 34
20 19 24 26 29 38 43 47 50 54 52 50 52 50 42 46 50 54 54 59 68 71 66 57 51 40 41 40 36 35 36 37 34 33 39 36 38 37 37 37 38 42 39 37
19 19 23 22 26 34 42 48 48 52 52 49 44 42 40 46 45 48 53 53 51 66 72 65 59 49 41 43 38 35 33 32 34 32 34 36 35 35 36 36 38 38 35 37
15 17 19 22 26 28 35 42 46 48 52 47 48 48 39 38 40 42 44 44 43 35 54 65 58 55 44 44 41 36 34 31 31 32 31 32 36 33 33 35 38 41 36 35
16 18 16 16 20 22 27 32 46 50 48 41 52 39 38 40 39 43 42 44 37 35 35 49 56 54 52 48 47 40 35 33 31 31 30 31 33 32 31 31 37 39 38 38
11 15 12 15 16 20 25 29 32 34 44 43 42 37 36 39 39 41 41 42 42 30 30 34 48 54 54 52 51 47 38 36 32 30 31 30 31 34 32 30 33 38 39 38
11 11 9 9 11 15 20 22 29 31 37 43 42 31 35 39 40 40 38 41 45 36 29 32 39 49 52 54 55 53 47 40 37 31 28 32 30 31 34 31 31 33 37 37
11 10 10 10 9 10 16 20 23 28 31 37 40 30 34 40 39 39 36 39 43 39 40 40 39 39 42 45 46 50 51 47 40 36 32 27 31 30 32 32 31 32 35 37
11 11 11 10 9 9 10 15 18 20 27 26 32 26 30 42 40 40 40 42 44 47 49 52 51 51 50 47 43 40 39 44 47 44 38 32 29 31 31 31 29 31 32 35
15 11 11 10 10 10 9 11 15 17 19 24 25 20 27 38 44 42 42 44 44 48 48 51 52 53 52 54 55 55 47 44 43 44 46 43 34 28 28 32 31 33 34 33
29 18 11 10 9 9 10 9 12 15 17 18 19 19 20 32 42 44 48 51 52 51 51 53 55 54 56 59 61 65 65 61 51 48 46 44 46 41 30 29 31 33 33 34
36 30 21 15 10 10 9 9 10 13 15 17 17 15 15 24 42 48 53 56 59 60 58 56 57 60 62 60 62 64 66 67 65 64 61 57 52 46 47 43 33 32 31 33
43 36 33 24 16 13 20 23 14 11 17 14 17 14 27 35 45 49 53 58 61 63 58 53 52 55 63 66 67 67 68 68 70 72 69 70 67 60 52 45 48 41 33 29
46 43 39 32 26 28 29 33 28 26 29 23 19 22 31 37 47 56 55 54 55 58 57 53 50 53 56 67 71 71 69 68 71 72 72 68 74 72 66 60 49 47 45 37
48 47 44 38 38 32 49 43 43 40 41 37 39 39 39 41 44 53 58 61 60 61 59 55 48 50 53 61 71 71 72 79 72 72 73 71 71 67 67 63 60 61 50 47
50 50 43 43 38 56 54 50 49 48 48 49 47 46 46 47 47 56 58 61 67 65 67 65 61 59 60 62 70 73 78 84 81 74 69 71 69 66 66 66 67 66 64 60
57 54 46 45 47 44 56 54 52 52 52 51 55 56 52 52 56 57 63 63 68 72 73 72 70 68 68 70 72 76 64 83 80 76 75 73 70 71 70 65 68 74 73 72
54 62 52 45 53 57 55 59 61 61 59 56 55 61 62 58 59 58 65 71 69 69 74 71 70 71 71 70 69 73 78 77 69 60 75 72 74 74 66 65 70 70 70 67
44 48 49 55 58 53 57 64 65 69 66 61 60 61 64 64 65 64 66 68 73 74 73 72 72 72 72 73 73 74 73 71 69 67 76 68 64 63 67 67 69 69 65 61
58 59 60 62 65 62 66 63 69 70 67 64 65 67 68 70 70 72 70 72 74 76 77 75 72 71 70 68 67 70 71 71 69 70 67 57 58 49 50 52 58 65 63 64
67 66 67 69 72 73 71 72 72 71 68 68 63 64 70 70 80 80 77 75 77 79 78 76 73 70 68 70 69 66 67 68 68 60 55 46 46 46 43 45 46 45 48 47
71 72 72 76 77 78 77 80 80 76 80 77 76 75 78 76 77 79 77 74 75 76 77 76 76 75 72 73 71 66 64 61 58 56 50 46 46 44 43 42 42 46 45 41
71 75 73 78 79 76 75 77 79 82 86 85 83 82 79 82 81 75 77 75 74 73 73 76 78 78 78 78 73 74 71 64 60 59 51 46 45 45 45 43 40 38 40 41